RPA1820 KGRB-KORD

Flight info

Callsign RPA1820
Flight time 0h 46m
Altitude 23000
Route FAALZ MADII7
Aircraft E75L/M-SDE3GILORVW/S

Departure

Time 2026-04-22 21:49
Airport Austin Straubel International Airport (KGRB)

Arrival

Time 2026-04-22 22:36
Airport Chicago O'Hare International Airport (KORD)
Time Latitude Longitude Altitude Speed Heading
2026-04-22 21:25 44.49111 -88.12857 697 ft 0 kts
2026-04-22 21:38 44.49088 -88.12859 692 ft 4 kts
2026-04-22 21:38 44.49061 -88.12864 692 ft 4 kts
2026-04-22 21:39 44.49046 -88.12863 694 ft 1 kts 353°
2026-04-22 21:39 44.49044 -88.12863 694 ft 0 kts 353°
2026-04-22 21:45 44.49045 -88.12863 694 ft 1 kts 353°
2026-04-22 21:45 44.49059 -88.12873 688 ft 3 kts 305°
2026-04-22 21:45 44.49057 -88.12894 691 ft 2 kts 231°
2026-04-22 21:45 44.49031 -88.12908 691 ft 7 kts 184°
2026-04-22 21:46 44.48963 -88.12930 694 ft 14 kts 208°
2026-04-22 21:46 44.48876 -88.13000 694 ft 16 kts 210°
2026-04-22 21:46 44.48776 -88.13078 697 ft 18 kts 210°
2026-04-22 21:46 44.48674 -88.13160 701 ft 14 kts 209°
2026-04-22 21:47 44.48598 -88.13258 697 ft 16 kts 241°
2026-04-22 21:47 44.48534 -88.13416 698 ft 21 kts 239°
2026-04-22 21:47 44.48455 -88.13606 697 ft 25 kts 238°
2026-04-22 21:47 44.48380 -88.13778 692 ft 11 kts 242°
2026-04-22 21:48 44.48361 -88.13826 699 ft 6 kts 231°
2026-04-22 21:48 44.48347 -88.13843 697 ft 2 kts 208°
2026-04-22 21:48 44.48321 -88.13844 699 ft 7 kts 169°
2026-04-22 21:48 44.48269 -88.13799 695 ft 10 kts 113°
2026-04-22 21:49 44.48296 -88.13682 695 ft 16 kts 60°
2026-04-22 21:49 44.48452 -88.13301 698 ft 89 kts 60°
2026-04-22 21:49 44.48912 -88.12179 757 ft 169 kts 58°
2026-04-22 21:49 44.49613 -88.10711 1673 ft 188 kts 55°
2026-04-22 21:50 44.50380 -88.09226 2824 ft 179 kts 65°
2026-04-22 21:50 44.50495 -88.07636 3776 ft 173 kts 110°
2026-04-22 21:50 44.49655 -88.06289 4220 ft 198 kts 157°
2026-04-22 21:50 44.48360 -88.06172 5418 ft 183 kts 195°
2026-04-22 21:51 44.47104 -88.06654 6674 ft 193 kts 199°
2026-04-22 21:51 44.45737 -88.07219 7650 ft 219 kts 200°
2026-04-22 21:51 44.44241 -88.07851 8527 ft 226 kts 200°
2026-04-22 21:52 44.41105 -88.08781 9840 ft 253 kts 184°
2026-04-22 21:52 44.39264 -88.08644 9985 ft 272 kts 176°
2026-04-22 21:52 44.37345 -88.08264 10276 ft 287 kts 173°
2026-04-22 21:52 44.35338 -88.07722 10799 ft 301 kts 168°
2026-04-22 21:53 44.33277 -88.06949 11394 ft 311 kts 166°
2026-04-22 21:53 44.31172 -88.06126 12153 ft 316 kts 166°
2026-04-22 21:53 44.29044 -88.05284 12932 ft 321 kts 166°
2026-04-22 21:53 44.26874 -88.04429 13738 ft 326 kts 166°
2026-04-22 21:54 44.24674 -88.03560 14484 ft 331 kts 166°
2026-04-22 21:54 44.22409 -88.02667 14953 ft 347 kts 166°
2026-04-22 21:54 44.20030 -88.01731 15389 ft 362 kts 166°
2026-04-22 21:54 44.17562 -88.00759 15889 ft 374 kts 166°
2026-04-22 21:55 44.15043 -87.99769 16605 ft 378 kts 166°
2026-04-22 21:55 44.12494 -87.98768 17333 ft 382 kts 166°
2026-04-22 21:55 44.09919 -87.97759 18057 ft 387 kts 167°
2026-04-22 21:55 44.07312 -87.96737 18742 ft 391 kts 167°
2026-04-22 21:56 44.04677 -87.95709 19382 ft 396 kts 166°
2026-04-22 21:56 44.02009 -87.94665 20057 ft 402 kts 166°
2026-04-22 21:56 43.99298 -87.93605 20749 ft 407 kts 166°
2026-04-22 21:56 43.96553 -87.92532 21389 ft 413 kts 166°
2026-04-22 21:57 43.93773 -87.91449 22016 ft 418 kts 166°
2026-04-22 21:57 43.90959 -87.90353 22619 ft 423 kts 165°
2026-04-22 21:57 43.88147 -87.89256 22900 ft 409 kts 165°
2026-04-22 21:57 43.85414 -87.88194 22963 ft 415 kts 165°
2026-04-22 21:58 43.82582 -87.87094 22770 ft 427 kts 165°
2026-04-22 21:58 43.79712 -87.86024 22562 ft 426 kts 168°
2026-04-22 21:58 43.76828 -87.85177 22354 ft 422 kts 171°
2026-04-22 21:58 43.73920 -87.84770 22142 ft 419 kts 179°
2026-04-22 21:59 43.71018 -87.84546 21941 ft 417 kts 179°
2026-04-22 21:59 43.68122 -87.84379 21731 ft 415 kts 180°
2026-04-22 21:59 43.65241 -87.84265 21530 ft 414 kts 179°
2026-04-22 21:59 43.62373 -87.83973 21329 ft 413 kts 178°
2026-04-22 22:00 43.59516 -87.83667 21131 ft 411 kts 178°
2026-04-22 22:00 43.56666 -87.83350 20913 ft 410 kts 178°
2026-04-22 22:00 43.53831 -87.83084 20438 ft 407 kts 181°
2026-04-22 22:00 43.51038 -87.83120 19944 ft 396 kts 185°
2026-04-22 22:01 43.48327 -87.83411 19457 ft 384 kts 192°
2026-04-22 22:01 43.45722 -87.84027 18872 ft 375 kts 193°
2026-04-22 22:01 43.43190 -87.84677 18281 ft 364 kts 194°
2026-04-22 22:01 43.40751 -87.85322 17606 ft 351 kts 195°
2026-04-22 22:02 43.38379 -87.85953 16938 ft 342 kts 194°
2026-04-22 22:02 43.36053 -87.86742 16286 ft 339 kts 201°
2026-04-22 22:02 43.33860 -87.87792 15674 ft 339 kts 204°
2026-04-22 22:02 43.31663 -87.88969 15068 ft 339 kts 205°
2026-04-22 22:03 43.29514 -87.90274 14487 ft 337 kts 210°
2026-04-22 22:03 43.27450 -87.91739 14205 ft 329 kts 211°
2026-04-22 22:03 43.25463 -87.93178 14102 ft 319 kts 212°
2026-04-22 22:03 43.23502 -87.94614 14055 ft 321 kts 212°
2026-04-22 22:04 43.21522 -87.96061 14035 ft 324 kts 212°
2026-04-22 22:04 43.19494 -87.97545 14044 ft 334 kts 211°
2026-04-22 22:04 43.17436 -87.99042 14041 ft 335 kts 211°
2026-04-22 22:04 43.15380 -88.00538 14033 ft 334 kts 211°
2026-04-22 22:05 43.13327 -88.02034 14033 ft 335 kts 211°
2026-04-22 22:05 43.11270 -88.03530 14026 ft 335 kts 211°
2026-04-22 22:05 43.09215 -88.05022 14037 ft 334 kts 211°
2026-04-22 22:05 43.07162 -88.06512 14033 ft 334 kts 211°
2026-04-22 22:06 43.05108 -88.08003 14024 ft 334 kts 211°
2026-04-22 22:06 43.03054 -88.09493 14032 ft 334 kts 211°
2026-04-22 22:06 43.00998 -88.10980 14016 ft 334 kts 211°
2026-04-22 22:06 42.98945 -88.12467 14019 ft 334 kts 211°
2026-04-22 22:07 42.96890 -88.13954 14003 ft 334 kts 211°
2026-04-22 22:07 42.94837 -88.15436 14012 ft 334 kts 211°
2026-04-22 22:07 42.92782 -88.16920 14012 ft 334 kts 211°
2026-04-22 22:07 42.90734 -88.18398 14006 ft 334 kts 211°
2026-04-22 22:08 42.88678 -88.19881 14007 ft 334 kts 211°
2026-04-22 22:08 42.86624 -88.21357 14013 ft 334 kts 211°
2026-04-22 22:08 42.84516 -88.22713 13996 ft 335 kts 206°
2026-04-22 22:08 42.82358 -88.23915 13990 ft 335 kts 204°
2026-04-22 22:09 42.80136 -88.24897 13995 ft 337 kts 197°
2026-04-22 22:09 42.77859 -88.25668 13919 ft 337 kts 196°
2026-04-22 22:09 42.75574 -88.26402 13792 ft 336 kts 196°
2026-04-22 22:09 42.73281 -88.27072 13836 ft 338 kts 193°
2026-04-22 22:10 42.70962 -88.27620 13868 ft 338 kts 192°
2026-04-22 22:10 42.68621 -88.28018 13886 ft 340 kts 186°
2026-04-22 22:10 42.66256 -88.28165 13906 ft 340 kts 184°
2026-04-22 22:10 42.63887 -88.28275 13898 ft 340 kts 184°
2026-04-22 22:11 42.61520 -88.28372 13890 ft 340 kts 184°
2026-04-22 22:11 42.59152 -88.28469 13897 ft 340 kts 184°
2026-04-22 22:11 42.56785 -88.28551 13879 ft 340 kts 183°
2026-04-22 22:11 42.54429 -88.28613 13320 ft 338 kts 185°
2026-04-22 22:12 42.52099 -88.28846 12812 ft 334 kts 186°
2026-04-22 22:12 42.49795 -88.29104 12307 ft 330 kts 187°
2026-04-22 22:12 42.47519 -88.29368 11818 ft 326 kts 187°
2026-04-22 22:12 42.45268 -88.29630 11338 ft 323 kts 186°
2026-04-22 22:13 42.43044 -88.29889 10934 ft 317 kts 186°
2026-04-22 22:13 42.40846 -88.30143 10410 ft 317 kts 186°
2026-04-22 22:13 42.38658 -88.30393 10141 ft 316 kts 186°
2026-04-22 22:13 42.36474 -88.30647 10068 ft 314 kts 186°
2026-04-22 22:14 42.34302 -88.30898 10022 ft 313 kts 187°
2026-04-22 22:14 42.32228 -88.31668 9992 ft 309 kts 211°
2026-04-22 22:14 42.30654 -88.33567 9977 ft 303 kts 238°
2026-04-22 22:14 42.29897 -88.36171 9998 ft 298 kts 260°
2026-04-22 22:15 42.29511 -88.38926 10004 ft 299 kts 262°
2026-04-22 22:15 42.29102 -88.41683 9994 ft 299 kts 259°
2026-04-22 22:15 42.28589 -88.44409 10011 ft 300 kts 256°
2026-04-22 22:15 42.27966 -88.47092 9846 ft 300 kts 253°
2026-04-22 22:16 42.27263 -88.49741 9568 ft 299 kts 251°
2026-04-22 22:16 42.26527 -88.52365 9273 ft 298 kts 251°
2026-04-22 22:16 42.25740 -88.54944 9078 ft 297 kts 246°
2026-04-22 22:16 42.24823 -88.57441 9029 ft 297 kts 245°
2026-04-22 22:17 42.23884 -88.59920 9008 ft 297 kts 244°
2026-04-22 22:17 42.22936 -88.62394 8994 ft 297 kts 244°
2026-04-22 22:17 42.21985 -88.64872 8980 ft 297 kts 244°
2026-04-22 22:17 42.21036 -88.67342 8981 ft 296 kts 244°
2026-04-22 22:18 42.20087 -88.69809 8980 ft 297 kts 244°
2026-04-22 22:18 42.19455 -88.71449 8988 ft 297 kts 244°
2026-04-22 22:18 42.18507 -88.73918 8981 ft 296 kts 244°
2026-04-22 22:18 42.17559 -88.76385 8980 ft 296 kts 244°
2026-04-22 22:19 42.16614 -88.78836 8965 ft 289 kts 244°
2026-04-22 22:19 42.15769 -88.81242 8955 ft 281 kts 254°
2026-04-22 22:19 42.15262 -88.83790 8968 ft 283 kts 256°
2026-04-22 22:19 42.14686 -88.86328 8972 ft 284 kts 252°
2026-04-22 22:20 42.13642 -88.89600 8958 ft 285 kts 245°
2026-04-22 22:20 42.13032 -88.91161 8953 ft 284 kts 243°
2026-04-22 22:20 42.12043 -88.93462 8962 ft 285 kts 238°
2026-04-22 22:20 42.10866 -88.95618 8969 ft 286 kts 234°
2026-04-22 22:21 42.09647 -88.97732 8967 ft 286 kts 233°
2026-04-22 22:21 42.08420 -88.99841 8961 ft 286 kts 234°
2026-04-22 22:21 42.07183 -89.01930 8962 ft 286 kts 231°
2026-04-22 22:21 42.05765 -89.03817 8963 ft 288 kts 222°
2026-04-22 22:22 42.04105 -89.05319 8952 ft 289 kts 208°
2026-04-22 22:22 42.02222 -89.06277 8944 ft 291 kts 195°
2026-04-22 22:22 42.00197 -89.06589 8973 ft 294 kts 181°
2026-04-22 22:22 41.98167 -89.06224 8982 ft 296 kts 166°
2026-04-22 22:23 41.96258 -89.05191 8971 ft 298 kts 151°
2026-04-22 22:23 41.94594 -89.03551 8843 ft 298 kts 136°
2026-04-22 22:23 41.93293 -89.01385 8619 ft 298 kts 121°
2026-04-22 22:23 41.92605 -88.98795 8340 ft 296 kts 97°
2026-04-22 22:24 41.92454 -88.96048 8116 ft 295 kts 90°
2026-04-22 22:24 41.92453 -88.93302 8039 ft 294 kts 88°
2026-04-22 22:24 41.92511 -88.90563 8009 ft 293 kts 85°
2026-04-22 22:24 41.92722 -88.87846 7981 ft 293 kts 82°
2026-04-22 22:25 41.92981 -88.85132 7982 ft 293 kts 81°
2026-04-22 22:25 41.93251 -88.82420 7983 ft 292 kts 81°
2026-04-22 22:25 41.93521 -88.79718 7963 ft 293 kts 81°
2026-04-22 22:25 41.93790 -88.77005 7966 ft 293 kts 81°
2026-04-22 22:26 41.94058 -88.74292 7966 ft 293 kts 81°
2026-04-22 22:26 41.94326 -88.71578 7952 ft 293 kts 81°
2026-04-22 22:26 41.94593 -88.68868 7972 ft 293 kts 81°
2026-04-22 22:26 41.94860 -88.66149 7969 ft 294 kts 81°
2026-04-22 22:27 41.95127 -88.63433 7964 ft 294 kts 81°
2026-04-22 22:27 41.95391 -88.60714 7957 ft 294 kts 81°
2026-04-22 22:27 41.95656 -88.57994 7976 ft 293 kts 81°
2026-04-22 22:27 41.95926 -88.55273 7970 ft 294 kts 81°
2026-04-22 22:28 41.96205 -88.52554 7943 ft 294 kts 82°
2026-04-22 22:28 41.96317 -88.49803 7691 ft 294 kts 88°
2026-04-22 22:28 41.96395 -88.47101 7430 ft 286 kts 89°
2026-04-22 22:28 41.96367 -88.44458 7176 ft 279 kts 89°
2026-04-22 22:29 41.96373 -88.41883 6927 ft 273 kts 89°
2026-04-22 22:29 41.96350 -88.39357 6681 ft 268 kts 88°
2026-04-22 22:29 41.96407 -88.36872 6441 ft 266 kts 88°
2026-04-22 22:29 41.96428 -88.34396 6188 ft 265 kts 89°
2026-04-22 22:30 41.96436 -88.31943 5969 ft 258 kts 89°
2026-04-22 22:30 41.96450 -88.29574 5749 ft 251 kts 89°
2026-04-22 22:30 41.96463 -88.27286 5549 ft 237 kts 90°
2026-04-22 22:30 41.96471 -88.25120 5299 ft 229 kts 90°
2026-04-22 22:31 41.96481 -88.22992 5004 ft 226 kts 90°
2026-04-22 22:31 41.96490 -88.20886 4701 ft 226 kts 90°
2026-04-22 22:31 41.96499 -88.18763 4398 ft 227 kts 91°
2026-04-22 22:31 41.96506 -88.16642 4092 ft 227 kts 90°
2026-04-22 22:32 41.96515 -88.14534 3783 ft 224 kts 90°
2026-04-22 22:32 41.96521 -88.12482 3526 ft 212 kts 91°
2026-04-22 22:32 41.96528 -88.10554 3261 ft 201 kts 90°
2026-04-22 22:32 41.96535 -88.08725 2997 ft 190 kts 90°
2026-04-22 22:33 41.96539 -88.07003 2719 ft 179 kts 90°
2026-04-22 22:33 41.96543 -88.05341 2490 ft 181 kts 89°
2026-04-22 22:33 41.96549 -88.03656 2294 ft 173 kts 90°
2026-04-22 22:33 41.96553 -88.02113 2093 ft 162 kts 91°
2026-04-22 22:34 41.96555 -88.00603 1849 ft 159 kts 89°
2026-04-22 22:34 41.96561 -87.99143 1636 ft 155 kts 90°
2026-04-22 22:34 41.96561 -87.97720 1405 ft 150 kts 89°
2026-04-22 22:34 41.96566 -87.96332 1197 ft 148 kts 88°
2026-04-22 22:35 41.96570 -87.94942 956 ft 149 kts 89°
2026-04-22 22:35 41.96572 -87.93621 778 ft 134 kts 89°
2026-04-22 22:35 41.96571 -87.92417 672 ft 121 kts 88°
2026-04-22 22:35 41.96571 -87.91440 667 ft 87 kts 88°
2026-04-22 22:36 41.96577 -87.90748 667 ft 48 kts 88°
2026-04-22 22:36 41.96635 -87.90439 666 ft 33 kts 60°
2026-04-22 22:36 41.96736 -87.90192 667 ft 26 kts 73°
2026-04-22 22:36 41.96742 -87.89954 668 ft 25 kts 90°
2026-04-22 22:37 41.96741 -87.89715 667 ft 26 kts 90°
2026-04-22 22:37 41.96741 -87.89514 667 ft 13 kts 91°
2026-04-22 22:37 41.96776 -87.89441 667 ft 10 kts 17°
2026-04-22 22:37 41.96857 -87.89436 667 ft 14 kts
2026-04-22 22:38 41.96964 -87.89436 667 ft 17 kts
2026-04-22 22:38 41.97083 -87.89433 668 ft 18 kts 359°
2026-04-22 22:38 41.97215 -87.89432 668 ft 20 kts 360°
2026-04-22 22:38 41.97366 -87.89427 668 ft 23 kts
2026-04-22 22:39 41.97467 -87.89443 668 ft 11 kts 327°
2026-04-22 22:39 41.97503 -87.89536 668 ft 11 kts 309°
2026-04-22 22:39 41.97552 -87.89634 667 ft 14 kts 295°
2026-04-22 22:39 41.97602 -87.89762 668 ft 17 kts 292°
2026-04-22 22:40 41.97618 -87.89886 668 ft 14 kts 269°
2026-04-22 22:40 41.97619 -87.89960 668 ft 5 kts 279°
2026-04-22 22:40 41.97625 -87.90014 668 ft 5 kts 280°
2026-04-22 22:40 41.97630 -87.90055 668 ft 0 kts 278°